Time,TemperatureF,DewpointF,PressureIn,WindDirection,WindDirectionDegrees,WindSpeedMPH,WindSpeedGustMPH,Humidity,HourlyPrecipIn,Conditions,Clouds,dailyrainin,SolarRadiationWatts/m^2,SoftwareType,DateUTC
2013-05-15 00:00:00,64.0,47.5,29.70,NNW,337,13.0,17.0,55,0.00,,CLR,0.00,0.00,VWS V14.01,2013-05-15 05:00:00,
2013-05-15 00:01:00,63.9,47.4,29.70,NW,313,12.0,16.0,55,0.00,,CLR,0.00,0.00,VWS V14.01,2013-05-15 05:01:00,
2013-05-15 00:05:00,63.8,47.3,29.70,NNW,329,16.0,17.0,55,0.00,,CLR,0.00,0.00,VWS V14.01,2013-05-15 05:05:00,
2013-05-15 00:06:00,63.6,47.2,29.70,NW,317,14.0,16.0,55,0.00,,CLR,0.00,0.00,VWS V14.01,2013-05-15 05:06:00,
2013-05-15 00:10:00,63.4,47.5,29.70,NW,326,17.0,17.0,56,0.00,,CLR,0.00,0.00,VWS V14.01,2013-05-15 05:10:00,
2013-05-15 00:12:00,63.3,47.3,29.71,NNW,337,6.0,13.0,56,0.00,,CLR,0.00,0.00,VWS V14.01,2013-05-15 05:12:00,
2013-05-15 00:15:00,63.1,46.7,29.71,NNW,336,22.0,22.0,55,0.00,,CLR,0.00,0.00,VWS V14.01,2013-05-15 05:15:00,
2013-05-15 00:17:00,62.9,46.5,29.71,NW,319,12.0,16.0,55,0.00,,CLR,0.00,0.00,VWS V14.01,2013-05-15 05:17:00,
2013-05-15 00:20:00,62.7,46.8,29.72,NNW,329,18.0,18.0,56,0.00,,CLR,0.00,0.00,VWS V14.01,2013-05-15 05:20:00,
2013-05-15 00:22:00,62.5,46.1,29.72,NW,316,13.0,18.0,55,0.00,,CLR,0.00,0.00,VWS V14.01,2013-05-15 05:22:00,
2013-05-15 00:25:00,62.3,46.4,29.72,NNW,344,10.0,15.0,56,0.00,,CLR,0.00,0.00,VWS V14.01,2013-05-15 05:25:00,
2013-05-15 00:27:00,62.1,46.2,29.73,NNW,334,14.0,16.0,56,0.00,,CLR,0.00,0.00,VWS V14.01,2013-05-15 05:27:00,
2013-05-15 00:30:00,61.8,46.0,29.73,North,360,11.0,15.0,56,0.00,,CLR,0.00,0.00,VWS V14.01,2013-05-15 05:30:00,
2013-05-15 00:32:00,61.6,45.8,29.73,NW,309,18.0,18.0,56,0.00,,CLR,0.00,0.00,VWS V14.01,2013-05-15 05:32:00,
2013-05-15 00:35:00,61.3,45.5,29.73,NW,324,15.0,15.0,56,0.00,,CLR,0.00,0.00,VWS V14.01,2013-05-15 05:35:00,
2013-05-15 00:37:00,61.2,45.4,29.73,NW,311,11.0,18.0,56,0.00,,CLR,0.00,0.00,VWS V14.01,2013-05-15 05:37:00,
2013-05-15 00:40:00,61.0,45.7,29.74,NNW,329,18.0,22.0,57,0.00,,CLR,0.00,0.00,VWS V14.01,2013-05-15 05:40:00,
2013-05-15 00:42:00,60.9,45.6,29.74,NW,321,18.0,18.0,57,0.00,,CLR,0.00,0.00,VWS V14.01,2013-05-15 05:42:00,
2013-05-15 00:45:00,60.9,45.6,29.74,NNW,342,13.0,19.0,57,0.00,,CLR,0.00,0.00,VWS V14.01,2013-05-15 05:45:00,
2013-05-15 00:47:00,60.8,45.5,29.74,NW,313,14.0,16.0,57,0.00,,CLR,0.00,0.00,VWS V14.01,2013-05-15 05:47:00,
2013-05-15 00:50:00,60.7,45.4,29.74,NW,325,17.0,20.0,57,0.00,,CLR,0.00,0.00,VWS V14.01,2013-05-15 05:50:00,
2013-05-15 00:52:00,60.5,45.2,29.74,NW,310,11.0,13.0,57,0.00,,CLR,0.00,0.00,VWS V14.01,2013-05-15 05:52:00,
2013-05-15 00:55:00,60.4,45.6,29.74,NW,315,9.0,9.0,58,0.00,,CLR,0.00,0.00,VWS V14.01,2013-05-15 05:55:00,
2013-05-15 00:57:00,60.3,45.5,29.75,NW,325,13.0,13.0,58,0.00,,CLR,0.00,0.00,VWS V14.01,2013-05-15 05:57:00,
2013-05-15 01:00:00,60.2,45.4,29.74,NW,320,16.0,16.0,58,0.00,,CLR,0.00,0.00,VWS V14.01,2013-05-15 06:00:00,
2013-05-15 01:02:00,60.1,45.3,29.74,NW,325,11.0,12.0,58,0.00,,CLR,0.00,0.00,VWS V14.01,2013-05-15 06:02:00,
2013-05-15 01:05:00,60.0,45.2,29.75,NW,325,12.0,12.0,58,0.00,,CLR,0.00,0.00,VWS V14.01,2013-05-15 06:05:00,
2013-05-15 01:07:00,59.9,45.5,29.75,West,281,11.0,12.0,59,0.00,,CLR,0.00,0.00,VWS V14.01,2013-05-15 06:07:00,
2013-05-15 01:10:00,59.8,45.5,29.75,NNW,341,13.0,13.0,59,0.00,,CLR,0.00,0.00,VWS V14.01,2013-05-15 06:10:00,
2013-05-15 01:12:00,59.6,45.3,29.75,NW,315,11.0,12.0,59,0.00,,CLR,0.00,0.00,VWS V14.01,2013-05-15 06:12:00,
2013-05-15 01:15:00,59.5,45.2,29.75,NW,321,10.0,11.0,59,0.00,,CLR,0.00,0.00,VWS V14.01,2013-05-15 06:15:00,
2013-05-15 01:17:00,59.3,45.0,29.76,NW,324,8.0,10.0,59,0.00,,CLR,0.00,0.00,VWS V14.01,2013-05-15 06:17:00,
2013-05-15 01:20:00,59.2,45.3,29.76,NW,317,14.0,16.0,60,0.00,,CLR,0.00,0.00,VWS V14.01,2013-05-15 06:20:00,
2013-05-15 01:22:00,59.1,45.2,29.76,NNW,333,6.0,9.0,60,0.00,,CLR,0.00,0.00,VWS V14.01,2013-05-15 06:22:00,
2013-05-15 01:25:00,59.0,45.2,29.76,NNW,333,9.0,12.0,60,0.00,,CLR,0.00,0.00,VWS V14.01,2013-05-15 06:25:00,
2013-05-15 01:27:00,59.0,45.2,29.76,NW,326,14.0,14.0,60,0.00,,CLR,0.00,0.00,VWS V14.01,2013-05-15 06:27:00,
2013-05-15 01:30:00,58.8,45.0,29.76,NW,323,10.0,11.0,60,0.00,,CLR,0.00,0.00,VWS V14.01,2013-05-15 06:30:00,
2013-05-15 01:32:00,58.7,45.3,29.76,NW,326,9.0,9.0,61,0.00,,CLR,0.00,0.00,VWS V14.01,2013-05-15 06:32:00,
2013-05-15 01:35:00,58.6,45.2,29.76,NW,317,11.0,12.0,61,0.00,,CLR,0.00,0.00,VWS V14.01,2013-05-15 06:35:00,
2013-05-15 01:37:00,58.6,45.2,29.77,NW,325,12.0,14.0,61,0.00,,CLR,0.00,0.00,VWS V14.01,2013-05-15 06:37:00,
2013-05-15 01:40:00,58.5,45.1,29.77,NNW,331,10.0,12.0,61,0.00,,CLR,0.00,0.00,VWS V14.01,2013-05-15 06:40:00,
2013-05-15 01:42:00,58.4,45.0,29.77,NW,321,10.0,12.0,61,0.00,,CLR,0.00,0.00,VWS V14.01,2013-05-15 06:42:00,
2013-05-15 01:45:00,58.2,45.3,29.77,NW,315,8.0,10.0,62,0.00,,CLR,0.00,0.00,VWS V14.01,2013-05-15 06:45:00,
2013-05-15 01:47:00,58.0,45.1,29.77,NW,317,7.0,11.0,62,0.00,,CLR,0.00,0.00,VWS V14.01,2013-05-15 06:47:00,
2013-05-15 01:50:00,57.9,45.0,29.77,NW,321,10.0,12.0,62,0.00,,CLR,0.00,0.00,VWS V14.01,2013-05-15 06:50:00,
2013-05-15 01:52:00,57.8,44.9,29.77,NNW,338,10.0,10.0,62,0.00,,CLR,0.00,0.00,VWS V14.01,2013-05-15 06:52:00,
2013-05-15 01:55:00,57.7,44.8,29.77,NNW,329,6.0,7.0,62,0.00,,CLR,0.00,0.00,VWS V14.01,2013-05-15 06:55:00,
2013-05-15 01:57:00,57.5,45.0,29.78,NW,324,7.0,7.0,63,0.00,,CLR,0.00,0.00,VWS V14.01,2013-05-15 06:57:00,
2013-05-15 02:00:00,57.5,45.0,29.78,NNW,327,10.0,10.0,63,0.00,,CLR,0.00,0.00,VWS V14.01,2013-05-15 07:00:00,
2013-05-15 02:02:00,57.3,44.8,29.77,NW,313,8.0,8.0,63,0.00,,CLR,0.00,0.00,VWS V14.01,2013-05-15 07:02:00,
2013-05-15 02:05:00,57.3,44.8,29.77,NW,315,5.0,5.0,63,0.00,,CLR,0.00,0.00,VWS V14.01,2013-05-15 07:05:00,
2013-05-15 02:07:00,57.2,44.7,29.77,NW,316,4.0,8.0,63,0.00,,CLR,0.00,0.00,VWS V14.01,2013-05-15 07:07:00,
2013-05-15 02:10:00,57.1,44.6,29.77,NNW,327,10.0,11.0,63,0.00,,CLR,0.00,0.00,VWS V14.01,2013-05-15 07:10:00,
2013-05-15 02:12:00,57.0,45.0,29.77,NW,326,5.0,8.0,64,0.00,,CLR,0.00,0.00,VWS V14.01,2013-05-15 07:12:00,
2013-05-15 02:15:00,56.9,44.9,29.77,NNW,331,6.0,6.0,64,0.00,,CLR,0.00,0.00,VWS V14.01,2013-05-15 07:15:00,
2013-05-15 02:17:00,56.7,44.7,29.78,NW,315,4.0,5.0,64,0.00,,CLR,0.00,0.00,VWS V14.01,2013-05-15 07:17:00,
2013-05-15 02:20:00,56.6,44.6,29.78,NNW,335,7.0,7.0,64,0.00,,CLR,0.00,0.00,VWS V14.01,2013-05-15 07:20:00,
2013-05-15 02:22:00,56.5,44.9,29.78,NW,307,5.0,7.0,65,0.00,,CLR,0.00,0.00,VWS V14.01,2013-05-15 07:22:00,
2013-05-15 02:25:00,56.4,44.8,29.78,NW,325,6.0,7.0,65,0.00,,CLR,0.00,0.00,VWS V14.01,2013-05-15 07:25:00,
2013-05-15 02:27:00,56.2,44.6,29.78,NW,310,5.0,6.0,65,0.00,,CLR,0.00,0.00,VWS V14.01,2013-05-15 07:27:00,
2013-05-15 02:30:00,56.2,44.6,29.78,NW,311,9.0,9.0,65,0.00,,CLR,0.00,0.00,VWS V14.01,2013-05-15 07:30:00,
2013-05-15 02:33:00,56.2,44.6,29.78,NW,314,5.0,5.0,65,0.00,,CLR,0.00,0.00,VWS V14.01,2013-05-15 07:33:00,
2013-05-15 02:35:00,56.1,44.5,29.78,NW,311,5.0,6.0,65,0.00,,CLR,0.00,0.00,VWS V14.01,2013-05-15 07:35:00,
2013-05-15 02:38:00,56.0,44.4,29.78,NW,315,5.0,6.0,65,0.00,,CLR,0.00,0.00,VWS V14.01,2013-05-15 07:38:00,
2013-05-15 02:40:00,55.8,44.2,29.78,NW,322,5.0,5.0,65,0.00,,CLR,0.00,0.00,VWS V14.01,2013-05-15 07:40:00,
2013-05-15 02:43:00,55.6,44.4,29.78,NW,323,3.0,4.0,66,0.00,,CLR,0.00,0.00,VWS V14.01,2013-05-15 07:43:00,
2013-05-15 02:45:00,55.4,44.2,29.78,NW,314,4.0,4.0,66,0.00,,CLR,0.00,0.00,VWS V14.01,2013-05-15 07:45:00,
2013-05-15 02:48:00,55.1,44.0,29.78,NW,318,4.0,4.0,66,0.00,,CLR,0.00,0.00,VWS V14.01,2013-05-15 07:48:00,
2013-05-15 02:50:00,55.0,44.3,29.78,NW,309,6.0,6.0,67,0.00,,CLR,0.00,0.00,VWS V14.01,2013-05-15 07:50:00,
2013-05-15 02:53:00,54.8,44.1,29.79,NW,315,4.0,5.0,67,0.00,,CLR,0.00,0.00,VWS V14.01,2013-05-15 07:53:00,
2013-05-15 02:55:00,54.8,44.1,29.79,NW,321,3.0,5.0,67,0.00,,CLR,0.00,0.00,VWS V14.01,2013-05-15 07:55:00,
2013-05-15 02:58:00,54.7,44.4,29.79,NW,317,5.0,5.0,68,0.00,,CLR,0.00,0.00,VWS V14.01,2013-05-15 07:58:00,
2013-05-15 03:00:00,54.8,44.5,29.79,WNW,301,7.0,7.0,68,0.00,,CLR,0.00,0.00,VWS V14.01,2013-05-15 08:00:00,
2013-05-15 03:03:00,54.8,44.5,29.79,NW,313,5.0,5.0,68,0.00,,CLR,0.00,0.00,VWS V14.01,2013-05-15 08:03:00,
2013-05-15 03:05:00,54.7,44.4,29.78,NW,309,4.0,5.0,68,0.00,,CLR,0.00,0.00,VWS V14.01,2013-05-15 08:05:00,
2013-05-15 03:08:00,54.7,44.4,29.79,NW,312,4.0,5.0,68,0.00,,CLR,0.00,0.00,VWS V14.01,2013-05-15 08:08:00,
2013-05-15 03:10:00,54.7,44.4,29.79,NW,319,5.0,5.0,68,0.00,,CLR,0.00,0.00,VWS V14.01,2013-05-15 08:10:00,
2013-05-15 03:13:00,54.6,44.3,29.79,NW,314,5.0,6.0,68,0.00,,CLR,0.00,0.00,VWS V14.01,2013-05-15 08:13:00,
2013-05-15 03:15:00,54.6,44.3,29.78,NW,320,4.0,5.0,68,0.00,,CLR,0.00,0.00,VWS V14.01,2013-05-15 08:15:00,
2013-05-15 03:18:00,54.4,44.1,29.79,NW,317,5.0,5.0,68,0.00,,CLR,0.00,0.00,VWS V14.01,2013-05-15 08:18:00,
2013-05-15 03:20:00,54.4,44.1,29.79,WNW,303,4.0,8.0,68,0.00,,CLR,0.00,0.00,VWS V14.01,2013-05-15 08:20:00,
2013-05-15 03:23:00,54.3,44.4,29.79,NW,312,3.0,3.0,69,0.00,,CLR,0.00,0.00,VWS V14.01,2013-05-15 08:23:00,
2013-05-15 03:25:00,54.3,44.4,29.79,NW,306,3.0,5.0,69,0.00,,CLR,0.00,0.00,VWS V14.01,2013-05-15 08:25:00,
2013-05-15 03:28:00,54.2,44.3,29.79,NW,315,6.0,6.0,69,0.00,,CLR,0.00,0.00,VWS V14.01,2013-05-15 08:28:00,
2013-05-15 03:30:00,54.1,44.2,29.79,NW,313,4.0,4.0,69,0.00,,CLR,0.00,0.00,VWS V14.01,2013-05-15 08:30:00,
2013-05-15 03:33:00,54.0,44.1,29.79,NW,321,5.0,5.0,69,0.00,,CLR,0.00,0.00,VWS V14.01,2013-05-15 08:33:00,
2013-05-15 03:35:00,53.9,44.0,29.79,NW,316,4.0,5.0,69,0.00,,CLR,0.00,0.00,VWS V14.01,2013-05-15 08:35:00,
2013-05-15 03:38:00,53.6,43.7,29.79,NW,305,5.0,5.0,69,0.00,,CLR,0.00,0.00,VWS V14.01,2013-05-15 08:38:00,
2013-05-15 03:40:00,53.6,44.1,29.79,NW,315,5.0,5.0,70,0.00,,CLR,0.00,0.00,VWS V14.01,2013-05-15 08:40:00,
2013-05-15 03:43:00,53.4,43.9,29.79,NW,323,4.0,4.0,70,0.00,,CLR,0.00,0.00,VWS V14.01,2013-05-15 08:43:00,
2013-05-15 03:45:00,53.3,43.8,29.79,NW,315,4.0,4.0,70,0.00,,CLR,0.00,0.00,VWS V14.01,2013-05-15 08:45:00,
2013-05-15 03:48:00,53.2,44.0,29.80,NW,313,2.0,5.0,71,0.00,,CLR,0.00,0.00,VWS V14.01,2013-05-15 08:48:00,
2013-05-15 03:50:00,53.2,44.0,29.80,NW,313,3.0,5.0,71,0.00,,CLR,0.00,0.00,VWS V14.01,2013-05-15 08:50:00,
2013-05-15 03:53:00,53.1,44.0,29.80,NW,313,3.0,4.0,71,0.00,,CLR,0.00,0.00,VWS V14.01,2013-05-15 08:53:00,
2013-05-15 03:55:00,53.0,43.9,29.80,NW,310,4.0,5.0,71,0.00,,CLR,0.00,0.00,VWS V14.01,2013-05-15 08:55:00,
2013-05-15 03:58:00,52.9,43.8,29.80,NW,314,3.0,4.0,71,0.00,,CLR,0.00,0.00,VWS V14.01,2013-05-15 08:58:00,
2013-05-15 04:00:00,52.8,43.7,29.80,NW,315,1.0,1.0,71,0.00,,CLR,0.00,0.00,VWS V14.01,2013-05-15 09:00:00,
2013-05-15 04:03:00,52.4,43.3,29.81,NW,304,3.0,4.0,71,0.00,,CLR,0.00,0.00,VWS V14.01,2013-05-15 09:03:00,
2013-05-15 04:05:00,52.3,43.5,29.81,WNW,302,2.0,2.0,72,0.00,,CLR,0.00,0.00,VWS V14.01,2013-05-15 09:05:00,
2013-05-15 04:08:00,52.1,43.4,29.81,WNW,296,2.0,3.0,72,0.00,,CLR,0.00,0.00,VWS V14.01,2013-05-15 09:08:00,
2013-05-15 04:10:00,51.9,43.2,29.81,WNW,296,0.0,1.0,72,0.00,,CLR,0.00,0.00,VWS V14.01,2013-05-15 09:10:00,
2013-05-15 04:13:00,51.4,42.7,29.81,WNW,296,1.0,2.0,72,0.00,,CLR,0.00,0.00,VWS V14.01,2013-05-15 09:13:00,
2013-05-15 04:15:00,51.2,42.9,29.81,WNW,296,2.0,2.0,73,0.00,,CLR,0.00,0.00,VWS V14.01,2013-05-15 09:15:00,
2013-05-15 04:18:00,50.8,42.8,29.81,WNW,296,1.0,1.0,74,0.00,,CLR,0.00,0.00,VWS V14.01,2013-05-15 09:18:00,
2013-05-15 04:20:00,50.7,42.7,29.81,West,265,2.0,3.0,74,0.00,,CLR,0.00,0.00,VWS V14.01,2013-05-15 09:20:00,
2013-05-15 04:23:00,50.5,42.9,29.81,WNW,285,5.0,5.0,75,0.00,,CLR,0.00,0.00,VWS V14.01,2013-05-15 09:23:00,
2013-05-15 04:25:00,50.5,42.9,29.81,NW,306,2.0,2.0,75,0.00,,CLR,0.00,0.00,VWS V14.01,2013-05-15 09:25:00,
2013-05-15 04:28:00,50.4,42.8,29.81,NW,307,2.0,4.0,75,0.00,,CLR,0.00,0.00,VWS V14.01,2013-05-15 09:28:00,
2013-05-15 04:30:00,50.4,42.8,29.81,NW,309,2.0,3.0,75,0.00,,CLR,0.00,0.00,VWS V14.01,2013-05-15 09:30:00,
2013-05-15 04:33:00,50.5,42.9,29.81,WNW,296,0.0,1.0,75,0.00,,CLR,0.00,0.00,VWS V14.01,2013-05-15 09:33:00,
2013-05-15 04:35:00,50.4,42.8,29.81,WNW,301,1.0,2.0,75,0.00,,CLR,0.00,0.00,VWS V14.01,2013-05-15 09:35:00,
2013-05-15 04:38:00,50.5,42.9,29.81,West,281,2.0,4.0,75,0.00,,CLR,0.00,0.00,VWS V14.01,2013-05-15 09:38:00,
2013-05-15 04:40:00,50.5,42.9,29.82,WNW,290,3.0,3.0,75,0.00,,CLR,0.00,0.00,VWS V14.01,2013-05-15 09:40:00,
2013-05-15 04:43:00,50.5,42.9,29.82,WNW,290,0.0,1.0,75,0.00,,CLR,0.00,0.00,VWS V14.01,2013-05-15 09:43:00,
2013-05-15 04:45:00,50.5,42.9,29.82,WNW,302,0.0,0.0,75,0.00,,CLR,0.00,0.00,VWS V14.01,2013-05-15 09:45:00,
2013-05-15 04:48:00,50.5,42.9,29.82,West,277,2.0,3.0,75,0.00,,CLR,0.00,0.00,VWS V14.01,2013-05-15 09:48:00,
2013-05-15 04:50:00,50.4,42.8,29.82,West,277,2.0,2.0,75,0.00,,CLR,0.00,0.00,VWS V14.01,2013-05-15 09:50:00,
2013-05-15 04:53:00,50.3,42.7,29.81,WNW,287,0.0,0.0,75,0.00,,CLR,0.00,0.00,VWS V14.01,2013-05-15 09:53:00,
2013-05-15 04:55:00,50.2,42.6,29.81,WNW,288,0.0,0.0,75,0.00,,CLR,0.00,0.00,VWS V14.01,2013-05-15 09:55:00,
2013-05-15 04:59:00,49.9,42.3,29.81,WNW,288,1.0,3.0,75,0.00,,CLR,0.00,0.00,VWS V14.01,2013-05-15 09:59:00,
2013-05-15 05:00:00,49.9,42.7,29.81,WNW,287,1.0,1.0,76,0.00,,CLR,0.00,0.00,VWS V14.01,2013-05-15 10:00:00,
2013-05-15 05:04:00,49.6,42.4,29.81,WNW,288,0.0,1.0,76,0.00,,CLR,0.00,0.00,VWS V14.01,2013-05-15 10:04:00,
2013-05-15 05:05:00,49.5,42.3,29.81,WNW,287,1.0,2.0,76,0.00,,CLR,0.00,0.00,VWS V14.01,2013-05-15 10:05:00,
2013-05-15 05:09:00,49.1,41.9,29.81,WNW,288,0.0,0.0,76,0.00,,CLR,0.00,0.00,VWS V14.01,2013-05-15 10:09:00,
2013-05-15 05:10:00,49.0,42.1,29.81,WNW,288,0.0,1.0,77,0.00,,CLR,0.00,0.00,VWS V14.01,2013-05-15 10:10:00,
2013-05-15 05:14:00,48.5,42.0,29.81,WNW,287,0.0,0.0,78,0.00,,CLR,0.00,0.00,VWS V14.01,2013-05-15 10:14:00,
2013-05-15 05:15:00,48.5,42.0,29.81,WNW,288,0.0,0.0,78,0.00,,CLR,0.00,0.00,VWS V14.01,2013-05-15 10:15:00,
2013-05-15 05:19:00,48.0,41.8,29.81,WNW,288,0.0,0.0,79,0.00,,CLR,0.00,0.00,VWS V14.01,2013-05-15 10:19:00,
2013-05-15 05:20:00,47.9,41.4,29.81,WNW,288,1.0,2.0,78,0.00,,CLR,0.00,0.00,VWS V14.01,2013-05-15 10:20:00,
2013-05-15 05:24:00,47.6,41.8,29.82,WNW,290,1.0,1.0,80,0.00,,CLR,0.00,0.00,VWS V14.01,2013-05-15 10:24:00,
2013-05-15 05:25:00,47.5,41.7,29.82,WNW,290,2.0,2.0,80,0.00,,CLR,0.00,0.00,VWS V14.01,2013-05-15 10:25:00,
2013-05-15 05:29:00,47.6,42.1,29.83,WNW,289,2.0,2.0,81,0.00,,CLR,0.00,0.00,VWS V14.01,2013-05-15 10:29:00,
2013-05-15 05:30:00,47.6,42.1,29.83,WNW,288,2.0,2.0,81,0.00,,CLR,0.00,0.00,VWS V14.01,2013-05-15 10:30:00,
2013-05-15 05:34:00,47.7,42.2,29.84,West,272,0.0,0.0,81,0.00,,CLR,0.00,0.00,VWS V14.01,2013-05-15 10:34:00,
2013-05-15 05:35:00,47.8,42.3,29.84,West,272,0.0,1.0,81,0.00,,CLR,0.00,0.00,VWS V14.01,2013-05-15 10:35:00,
2013-05-15 05:39:00,48.1,42.5,29.85,West,272,3.0,3.0,81,0.00,,CLR,0.00,0.00,VWS V14.01,2013-05-15 10:39:00,
2013-05-15 05:40:00,48.2,42.7,29.85,WSW,249,5.0,5.0,81,0.00,,CLR,0.00,0.00,VWS V14.01,2013-05-15 10:40:00,
2013-05-15 05:44:00,48.7,42.8,29.85,West,272,0.0,0.0,80,0.00,,CLR,0.00,0.00,VWS V14.01,2013-05-15 10:44:00,
2013-05-15 05:45:00,48.7,42.8,29.85,West,273,2.0,3.0,80,0.00,,CLR,0.00,0.00,VWS V14.01,2013-05-15 10:45:00,
2013-05-15 05:49:00,49.0,42.8,29.85,WSW,249,0.0,1.0,79,0.00,,CLR,0.00,5.00,VWS V14.01,2013-05-15 10:49:00,
2013-05-15 05:50:00,49.0,42.8,29.85,WSW,250,1.0,2.0,79,0.00,,CLR,0.00,7.00,VWS V14.01,2013-05-15 10:50:00,
2013-05-15 05:54:00,49.0,42.8,29.86,WSW,251,1.0,2.0,79,0.00,,CLR,0.00,9.00,VWS V14.01,2013-05-15 10:54:00,
2013-05-15 05:55:00,49.0,42.5,29.86,WSW,252,2.0,2.0,78,0.00,,CLR,0.00,9.00,VWS V14.01,2013-05-15 10:55:00,
2013-05-15 05:59:00,49.1,42.9,29.87,West,269,0.0,0.0,79,0.00,,CLR,0.00,11.00,VWS V14.01,2013-05-15 10:59:00,
2013-05-15 06:00:00,49.1,42.9,29.87,West,269,1.0,1.0,79,0.00,,CLR,0.00,11.00,VWS V14.01,2013-05-15 11:00:00,
2013-05-15 06:04:00,49.3,43.1,29.88,WSW,248,0.0,0.0,79,0.00,,CLR,0.00,12.00,VWS V14.01,2013-05-15 11:04:00,
2013-05-15 06:05:00,49.3,43.1,29.88,WSW,248,0.0,0.0,79,0.00,,CLR,0.00,12.00,VWS V14.01,2013-05-15 11:05:00,
2013-05-15 06:09:00,49.7,43.1,29.87,WNW,294,1.0,3.0,78,0.00,,CLR,0.00,14.00,VWS V14.01,2013-05-15 11:09:00,
2013-05-15 06:10:00,49.7,43.1,29.87,WNW,293,0.0,1.0,78,0.00,,CLR,0.00,14.00,VWS V14.01,2013-05-15 11:10:00,
2013-05-15 06:14:00,49.9,43.3,29.88,West,279,2.0,2.0,78,0.00,,CLR,0.00,16.00,VWS V14.01,2013-05-15 11:14:00,
2013-05-15 06:15:00,49.9,43.3,29.88,West,280,3.0,3.0,78,0.00,,CLR,0.00,16.00,VWS V14.01,2013-05-15 11:15:00,
2013-05-15 06:19:00,50.0,43.1,29.89,WNW,282,2.0,2.0,77,0.00,,CLR,0.00,18.00,VWS V14.01,2013-05-15 11:19:00,
2013-05-15 06:20:00,50.1,43.2,29.89,WNW,283,2.0,2.0,77,0.00,,CLR,0.00,19.00,VWS V14.01,2013-05-15 11:20:00,
2013-05-15 06:25:00,50.2,43.3,29.88,West,277,2.0,3.0,77,0.00,,CLR,0.00,25.00,VWS V14.01,2013-05-15 11:25:00,
2013-05-15 06:30:00,50.4,43.5,29.89,SW,232,2.0,2.0,77,0.00,,CLR,0.00,28.00,VWS V14.01,2013-05-15 11:30:00,
2013-05-15 06:35:00,50.7,43.8,29.89,NW,323,1.0,3.0,77,0.00,,CLR,0.00,30.00,VWS V14.01,2013-05-15 11:35:00,
2013-05-15 06:40:00,51.0,43.7,29.89,WNW,290,4.0,4.0,76,0.00,,CLR,0.00,42.00,VWS V14.01,2013-05-15 11:40:00,
2013-05-15 06:45:00,51.4,43.8,29.89,West,272,5.0,5.0,75,0.00,,CLR,0.00,44.00,VWS V14.01,2013-05-15 11:45:00,
2013-05-15 06:50:00,51.8,44.1,29.90,WNW,288,1.0,2.0,75,0.00,,CLR,0.00,63.00,VWS V14.01,2013-05-15 11:50:00,
2013-05-15 06:55:00,52.2,44.5,29.90,WNW,297,0.0,2.0,75,0.00,,CLR,0.00,84.00,VWS V14.01,2013-05-15 11:55:00,
2013-05-15 07:00:00,52.7,44.7,29.91,WNW,294,1.0,1.0,74,0.00,,CLR,0.00,176.00,VWS V14.01,2013-05-15 12:00:00,
2013-05-15 07:05:00,53.4,45.0,29.91,WSW,253,1.0,2.0,73,0.00,,CLR,0.00,204.00,VWS V14.01,2013-05-15 12:05:00,
2013-05-15 07:10:00,54.4,45.6,29.92,West,273,1.0,1.0,72,0.00,,CLR,0.00,241.00,VWS V14.01,2013-05-15 12:10:00,
2013-05-15 07:15:00,55.4,45.4,29.92,West,264,1.0,2.0,69,0.00,,CLR,0.00,250.00,VWS V14.01,2013-05-15 12:15:00,
2013-05-15 07:20:00,56.0,45.2,29.92,WSW,256,4.0,5.0,67,0.00,,CLR,0.00,262.00,VWS V14.01,2013-05-15 12:20:00,
2013-05-15 07:25:00,56.5,45.7,29.92,WNW,293,3.0,4.0,67,0.00,,CLR,0.00,285.00,VWS V14.01,2013-05-15 12:25:00,
2013-05-15 07:30:00,57.0,45.8,29.91,West,277,4.0,4.0,66,0.00,,CLR,0.00,329.00,VWS V14.01,2013-05-15 12:30:00,
2013-05-15 07:31:00,57.3,46.0,29.91,West,264,2.0,2.0,66,0.00,,CLR,0.00,295.00,VWS V14.01,2013-05-15 12:31:00,
2013-05-15 07:35:00,57.6,45.9,29.91,WNW,284,2.0,3.0,65,0.00,,CLR,0.00,193.00,VWS V14.01,2013-05-15 12:35:00,
2013-05-15 07:36:00,57.7,46.0,29.91,WNW,296,2.0,2.0,65,0.00,,CLR,0.00,165.00,VWS V14.01,2013-05-15 12:36:00,
2013-05-15 07:40:00,57.9,45.8,29.91,WNW,295,3.0,4.0,64,0.00,,CLR,0.00,144.00,VWS V14.01,2013-05-15 12:40:00,
2013-05-15 07:41:00,57.9,45.4,29.91,WNW,285,3.0,3.0,63,0.00,,CLR,0.00,148.00,VWS V14.01,2013-05-15 12:41:00,
2013-05-15 07:45:00,57.9,45.4,29.91,WNW,284,1.0,2.0,63,0.00,,CLR,0.00,149.00,VWS V14.01,2013-05-15 12:45:00,
2013-05-15 07:47:00,57.9,45.8,29.91,WNW,294,3.0,3.0,64,0.00,,CLR,0.00,156.00,VWS V14.01,2013-05-15 12:47:00,
2013-05-15 07:50:00,57.9,45.8,29.91,WNW,294,1.0,2.0,64,0.00,,CLR,0.00,176.00,VWS V14.01,2013-05-15 12:50:00,
2013-05-15 07:52:00,58.0,45.5,29.91,NW,309,0.0,1.0,63,0.00,,CLR,0.00,188.00,VWS V14.01,2013-05-15 12:52:00,
2013-05-15 07:55:00,58.1,46.0,29.91,WNW,296,0.0,0.0,64,0.00,,CLR,0.00,174.00,VWS V14.01,2013-05-15 12:55:00,
2013-05-15 07:57:00,58.2,45.7,29.91,WNW,284,3.0,4.0,63,0.00,,CLR,0.00,176.00,VWS V14.01,2013-05-15 12:57:00,
2013-05-15 08:00:00,58.2,45.3,29.91,WNW,300,4.0,4.0,62,0.00,,CLR,0.00,148.00,VWS V14.01,2013-05-15 13:00:00,
2013-05-15 08:03:00,58.2,45.3,29.91,West,272,3.0,4.0,62,0.00,,CLR,0.00,236.00,VWS V14.01,2013-05-15 13:03:00,
2013-05-15 08:05:00,58.2,45.3,29.91,NW,315,5.0,5.0,62,0.00,,CLR,0.00,244.00,VWS V14.01,2013-05-15 13:05:00,
2013-05-15 08:08:00,58.4,45.9,29.91,West,273,0.0,0.0,63,0.00,,CLR,0.00,352.00,VWS V14.01,2013-05-15 13:08:00,
2013-05-15 08:10:00,58.6,46.1,29.92,WNW,288,2.0,2.0,63,0.00,,CLR,0.00,413.00,VWS V14.01,2013-05-15 13:10:00,
2013-05-15 08:13:00,59.0,46.8,29.91,NW,310,2.0,2.0,64,0.00,,CLR,0.00,527.00,VWS V14.01,2013-05-15 13:13:00,
2013-05-15 08:15:00,59.0,46.4,29.92,West,280,3.0,5.0,63,0.00,,CLR,0.00,274.00,VWS V14.01,2013-05-15 13:15:00,
2013-05-15 08:18:00,59.3,45.4,29.91,West,277,3.0,4.0,60,0.00,,CLR,0.00,195.00,VWS V14.01,2013-05-15 13:18:00,
2013-05-15 08:20:00,59.3,45.9,29.92,WNW,292,2.0,4.0,61,0.00,,CLR,0.00,195.00,VWS V14.01,2013-05-15 13:20:00,
2013-05-15 08:24:00,59.3,45.9,29.91,WSW,258,4.0,4.0,61,0.00,,CLR,0.00,193.00,VWS V14.01,2013-05-15 13:24:00,
2013-05-15 08:25:00,59.3,45.9,29.91,NW,306,3.0,4.0,61,0.00,,CLR,0.00,207.00,VWS V14.01,2013-05-15 13:25:00,
2013-05-15 08:29:00,59.4,45.5,29.92,NW,306,0.0,2.0,60,0.00,,CLR,0.00,221.00,VWS V14.01,2013-05-15 13:29:00,
2013-05-15 08:30:00,59.4,46.0,29.92,NW,306,5.0,5.0,61,0.00,,CLR,0.00,209.00,VWS V14.01,2013-05-15 13:30:00,
2013-05-15 08:34:00,59.5,45.6,29.92,NW,311,4.0,4.0,60,0.00,,CLR,0.00,216.00,VWS V14.01,2013-05-15 13:34:00,
2013-05-15 08:35:00,59.5,45.6,29.92,NW,310,2.0,3.0,60,0.00,,CLR,0.00,211.00,VWS V14.01,2013-05-15 13:35:00,
2013-05-15 08:40:00,59.7,45.8,29.92,WNW,291,0.0,0.0,60,0.00,,CLR,0.00,218.00,VWS V14.01,2013-05-15 13:40:00,
2013-05-15 08:45:00,60.3,46.4,29.92,NW,313,3.0,4.0,60,0.00,,CLR,0.00,432.00,VWS V14.01,2013-05-15 13:45:00,
2013-05-15 08:50:00,61.1,47.1,29.91,WNW,302,2.0,2.0,60,0.00,,CLR,0.00,464.00,VWS V14.01,2013-05-15 13:50:00,
2013-05-15 08:55:00,61.7,45.9,29.91,WNW,287,2.0,2.0,56,0.00,,CLR,0.00,390.00,VWS V14.01,2013-05-15 13:55:00,
2013-05-15 09:00:00,62.0,46.1,29.91,WNW,298,3.0,4.0,56,0.00,,CLR,0.00,461.00,VWS V14.01,2013-05-15 14:00:00,
2013-05-15 09:05:00,62.4,46.5,29.91,WSW,250,2.0,2.0,56,0.00,,CLR,0.00,469.00,VWS V14.01,2013-05-15 14:05:00,
2013-05-15 09:10:00,62.8,45.9,29.91,West,266,1.0,2.0,54,0.00,,CLR,0.00,392.00,VWS V14.01,2013-05-15 14:10:00,
2013-05-15 09:15:00,63.0,45.6,29.91,West,268,3.0,3.0,53,0.00,,CLR,0.00,288.00,VWS V14.01,2013-05-15 14:15:00,
2013-05-15 09:16:00,63.0,45.1,29.91,West,268,0.0,1.0,52,0.00,,CLR,0.00,251.00,VWS V14.01,2013-05-15 14:16:00,
2013-05-15 09:20:00,62.9,45.5,29.91,NW,304,4.0,4.0,53,0.00,,CLR,0.00,264.00,VWS V14.01,2013-05-15 14:20:00,
2013-05-15 09:21:00,62.9,46.0,29.91,NW,306,3.0,4.0,54,0.00,,CLR,0.00,288.00,VWS V14.01,2013-05-15 14:21:00,
2013-05-15 09:25:00,62.9,45.5,29.91,WNW,301,0.0,0.0,53,0.00,,CLR,0.00,211.00,VWS V14.01,2013-05-15 14:25:00,
2013-05-15 09:26:00,62.9,46.5,29.91,WNW,302,4.0,4.0,55,0.00,,CLR,0.00,262.00,VWS V14.01,2013-05-15 14:26:00,
2013-05-15 09:30:00,63.0,46.1,29.91,WNW,300,2.0,3.0,54,0.00,,CLR,0.00,434.00,VWS V14.01,2013-05-15 14:30:00,
2013-05-15 09:31:00,63.1,45.7,29.90,WNW,294,1.0,3.0,53,0.00,,CLR,0.00,434.00,VWS V14.01,2013-05-15 14:31:00,
2013-05-15 09:35:00,63.5,46.1,29.90,NW,304,0.0,1.0,53,0.00,,CLR,0.00,155.00,VWS V14.01,2013-05-15 14:35:00,
2013-05-15 09:36:00,63.6,45.7,29.90,NW,313,1.0,2.0,52,0.00,,CLR,0.00,149.00,VWS V14.01,2013-05-15 14:36:00,
2013-05-15 09:40:00,63.8,46.8,29.90,NW,313,2.0,2.0,54,0.00,,CLR,0.00,144.00,VWS V14.01,2013-05-15 14:40:00,
2013-05-15 09:42:00,64.0,46.5,29.90,NW,312,3.0,4.0,53,0.00,,CLR,0.00,701.00,VWS V14.01,2013-05-15 14:42:00,
2013-05-15 09:45:00,64.5,46.0,29.90,WNW,290,3.0,3.0,51,0.00,,CLR,0.00,744.00,VWS V14.01,2013-05-15 14:45:00,
2013-05-15 09:47:00,64.9,46.4,29.90,West,267,0.0,2.0,51,0.00,,CLR,0.00,805.00,VWS V14.01,2013-05-15 14:47:00,
2013-05-15 09:50:00,65.4,46.8,29.90,NNW,327,3.0,4.0,51,0.00,,CLR,0.00,555.00,VWS V14.01,2013-05-15 14:50:00,
2013-05-15 09:52:00,65.7,45.5,29.90,North,355,4.0,4.0,48,0.00,,CLR,0.00,513.00,VWS V14.01,2013-05-15 14:52:00,
2013-05-15 09:55:00,65.7,44.9,29.90,WNW,287,0.0,2.0,47,0.00,,CLR,0.00,279.00,VWS V14.01,2013-05-15 14:55:00,
2013-05-15 09:57:00,65.8,46.7,29.89,WNW,287,2.0,2.0,50,0.00,,CLR,0.00,575.00,VWS V14.01,2013-05-15 14:57:00,
2013-05-15 10:00:00,66.0,46.3,29.90,WNW,287,0.0,1.0,49,0.00,,CLR,0.00,575.00,VWS V14.01,2013-05-15 15:00:00,
2013-05-15 10:03:00,66.3,46.0,29.90,WSW,241,0.0,0.0,48,0.00,,CLR,0.00,404.00,VWS V14.01,2013-05-15 15:03:00,
2013-05-15 10:05:00,66.5,45.7,29.90,West,272,1.0,2.0,47,0.00,,CLR,0.00,308.00,VWS V14.01,2013-05-15 15:05:00,
2013-05-15 10:08:00,66.5,44.5,29.90,West,271,0.0,0.0,45,0.00,,CLR,0.00,346.00,VWS V14.01,2013-05-15 15:08:00,
2013-05-15 10:10:00,66.5,45.7,29.90,West,271,0.0,0.0,47,0.00,,CLR,0.00,687.00,VWS V14.01,2013-05-15 15:10:00,
2013-05-15 10:13:00,66.8,44.2,29.90,West,281,1.0,1.0,44,0.00,,CLR,0.00,851.00,VWS V14.01,2013-05-15 15:13:00,
2013-05-15 10:15:00,67.0,43.8,29.90,NW,315,2.0,3.0,43,0.00,,CLR,0.00,585.00,VWS V14.01,2013-05-15 15:15:00,
2013-05-15 10:19:00,67.4,44.8,29.89,NNE,18,1.0,3.0,44,0.00,,CLR,0.00,580.00,VWS V14.01,2013-05-15 15:19:00,
2013-05-15 10:20:00,67.4,45.3,29.89,West,280,5.0,7.0,45,0.00,,CLR,0.00,580.00,VWS V14.01,2013-05-15 15:20:00,
2013-05-15 10:24:00,67.5,41.7,29.89,West,267,3.0,4.0,39,0.00,,CLR,0.00,336.00,VWS V14.01,2013-05-15 15:24:00,
2013-05-15 10:25:00,67.5,41.7,29.89,NW,310,1.0,4.0,39,0.00,,CLR,0.00,336.00,VWS V14.01,2013-05-15 15:25:00,
2013-05-15 10:29:00,67.8,42.0,29.89,WNW,289,1.0,3.0,39,0.00,,CLR,0.00,431.00,VWS V14.01,2013-05-15 15:29:00,
2013-05-15 10:30:00,67.8,43.3,29.89,WNW,289,2.0,2.0,41,0.00,,CLR,0.00,431.00,VWS V14.01,2013-05-15 15:30:00,
2013-05-15 10:34:00,68.4,43.2,29.89,NW,321,5.0,6.0,40,0.00,,CLR,0.00,861.00,VWS V14.01,2013-05-15 15:34:00,
2013-05-15 10:35:00,68.5,43.2,29.89,NW,319,5.0,5.0,40,0.00,,CLR,0.00,861.00,VWS V14.01,2013-05-15 15:35:00,
2013-05-15 10:39:00,69.2,43.9,29.89,NW,316,0.0,0.0,40,0.00,,CLR,0.00,896.00,VWS V14.01,2013-05-15 15:39:00,
2013-05-15 10:40:00,69.3,43.3,29.89,NW,316,1.0,1.0,39,0.00,,CLR,0.00,907.00,VWS V14.01,2013-05-15 15:40:00,
2013-05-15 10:45:00,69.9,43.8,29.88,WNW,303,9.0,9.0,39,0.00,,CLR,0.00,882.00,VWS V14.01,2013-05-15 15:45:00,
2013-05-15 10:50:00,70.3,40.6,29.88,WNW,284,4.0,10.0,34,0.00,,CLR,0.00,603.00,VWS V14.01,2013-05-15 15:50:00,
2013-05-15 10:55:00,71.0,42.7,29.88,West,272,4.0,4.0,36,0.00,,CLR,0.00,680.00,VWS V14.01,2013-05-15 15:55:00,
2013-05-15 11:00:00,71.3,42.3,29.89,NW,315,2.0,5.0,35,0.00,,CLR,0.00,870.00,VWS V14.01,2013-05-15 16:00:00,
2013-05-15 11:05:00,71.4,43.1,29.88,NNW,334,5.0,5.0,36,0.00,,CLR,0.00,930.00,VWS V14.01,2013-05-15 16:05:00,
2013-05-15 11:10:00,71.6,42.5,29.88,West,268,3.0,3.0,35,0.00,,CLR,0.00,763.00,VWS V14.01,2013-05-15 16:10:00,
2013-05-15 11:15:00,71.6,41.8,29.88,South,183,1.0,1.0,34,0.00,,CLR,0.00,893.00,VWS V14.01,2013-05-15 16:15:00,
2013-05-15 11:16:00,71.7,41.9,29.88,South,181,0.0,1.0,34,0.00,,CLR,0.00,893.00,VWS V14.01,2013-05-15 16:16:00,
2013-05-15 11:20:00,72.0,42.1,29.88,WSW,254,4.0,5.0,34,0.00,,CLR,0.00,898.00,VWS V14.01,2013-05-15 16:20:00,
2013-05-15 11:21:00,72.1,43.7,29.88,SW,232,3.0,3.0,36,0.00,,CLR,0.00,902.00,VWS V14.01,2013-05-15 16:21:00,
2013-05-15 11:25:00,72.7,44.2,29.88,NW,315,2.0,2.0,36,0.00,,CLR,0.00,712.00,VWS V14.01,2013-05-15 16:25:00,
2013-05-15 11:26:00,72.8,43.6,29.88,SSE,168,5.0,5.0,35,0.00,,CLR,0.00,916.00,VWS V14.01,2013-05-15 16:26:00,
2013-05-15 11:30:00,73.1,45.3,29.88,SW,218,6.0,6.0,37,0.00,,CLR,0.00,909.00,VWS V14.01,2013-05-15 16:30:00,
2013-05-15 11:32:00,73.1,43.8,29.88,SSW,198,7.0,7.0,35,0.00,,CLR,0.00,909.00,VWS V14.01,2013-05-15 16:32:00,
2013-05-15 11:35:00,73.2,43.9,29.88,WSW,251,2.0,3.0,35,0.00,,CLR,0.00,912.00,VWS V14.01,2013-05-15 16:35:00,
2013-05-15 11:37:00,73.3,43.3,29.88,SSW,208,10.0,10.0,34,0.00,,CLR,0.00,914.00,VWS V14.01,2013-05-15 16:37:00,
2013-05-15 11:40:00,73.3,43.3,29.88,SSW,200,4.0,4.0,34,0.00,,CLR,0.00,916.00,VWS V14.01,2013-05-15 16:40:00,
2013-05-15 11:42:00,73.4,44.8,29.88,West,271,2.0,4.0,36,0.00,,CLR,0.00,914.00,VWS V14.01,2013-05-15 16:42:00,
2013-05-15 11:45:00,73.6,45.0,29.88,WSW,240,10.0,10.0,36,0.00,,CLR,0.00,912.00,VWS V14.01,2013-05-15 16:45:00,
2013-05-15 11:48:00,73.8,45.2,29.87,WSW,250,2.0,3.0,36,0.00,,CLR,0.00,912.00,VWS V14.01,2013-05-15 16:48:00,
2013-05-15 11:50:00,74.0,44.6,29.87,WSW,252,5.0,6.0,35,0.00,,CLR,0.00,912.00,VWS V14.01,2013-05-15 16:50:00,
2013-05-15 11:53:00,74.3,46.4,29.87,North,360,3.0,3.0,37,0.00,,CLR,0.00,912.00,VWS V14.01,2013-05-15 16:53:00,
2013-05-15 11:55:00,74.6,47.3,29.87,SW,221,6.0,14.0,38,0.00,,CLR,0.00,914.00,VWS V14.01,2013-05-15 16:55:00,
2013-05-15 11:58:00,75.0,46.3,29.87,WNW,286,11.0,11.0,36,0.00,,CLR,0.00,919.00,VWS V14.01,2013-05-15 16:58:00,
2013-05-15 12:00:00,75.1,46.3,29.87,NW,304,8.0,9.0,36,0.00,,CLR,0.00,919.00,VWS V14.01,2013-05-15 17:00:00,
2013-05-15 12:03:00,75.5,48.1,29.87,NNW,329,9.0,11.0,38,0.00,,CLR,0.00,925.00,VWS V14.01,2013-05-15 17:03:00,
2013-05-15 12:05:00,75.7,46.1,29.87,NW,319,3.0,4.0,35,0.00,,CLR,0.00,923.00,VWS V14.01,2013-05-15 17:05:00,
2013-05-15 12:08:00,75.8,46.2,29.87,WNW,295,6.0,10.0,35,0.00,,CLR,0.00,925.00,VWS V14.01,2013-05-15 17:08:00,
2013-05-15 12:10:00,75.9,47.8,29.87,WNW,301,5.0,5.0,37,0.00,,CLR,0.00,926.00,VWS V14.01,2013-05-15 17:10:00,
2013-05-15 12:13:00,76.1,49.4,29.87,West,276,3.0,3.0,39,0.00,,CLR,0.00,928.00,VWS V14.01,2013-05-15 17:13:00,
2013-05-15 12:15:00,76.2,47.3,29.87,WSW,251,2.0,6.0,36,0.00,,CLR,0.00,933.00,VWS V14.01,2013-05-15 17:15:00,
2013-05-15 12:19:00,76.2,46.6,29.87,WNW,293,15.0,16.0,35,0.00,,CLR,0.00,933.00,VWS V14.01,2013-05-15 17:19:00,
2013-05-15 12:20:00,76.1,47.2,29.87,WSW,256,6.0,7.0,36,0.00,,CLR,0.00,935.00,VWS V14.01,2013-05-15 17:20:00,
2013-05-15 12:24:00,76.1,46.5,29.87,WSW,246,13.0,15.0,35,0.00,,CLR,0.00,947.00,VWS V14.01,2013-05-15 17:24:00,
2013-05-15 12:25:00,76.1,46.5,29.87,WNW,292,2.0,2.0,35,0.00,,CLR,0.00,947.00,VWS V14.01,2013-05-15 17:25:00,
2013-05-15 12:29:00,76.3,48.1,29.86,SW,224,4.0,7.0,37,0.00,,CLR,0.00,949.00,VWS V14.01,2013-05-15 17:29:00,
2013-05-15 12:30:00,76.5,49.0,29.86,SW,214,3.0,5.0,38,0.00,,CLR,0.00,954.00,VWS V14.01,2013-05-15 17:30:00,
2013-05-15 12:34:00,76.4,47.5,29.86,WNW,286,1.0,2.0,36,0.00,,CLR,0.00,988.00,VWS V14.01,2013-05-15 17:34:00,
2013-05-15 12:35:00,76.5,48.3,29.86,NW,304,8.0,10.0,37,0.00,,CLR,0.00,1000.00,VWS V14.01,2013-05-15 17:35:00,
2013-05-15 12:39:00,76.9,46.4,29.85,NW,316,5.0,6.0,34,0.00,,CLR,0.00,1002.00,VWS V14.01,2013-05-15 17:39:00,
2013-05-15 12:40:00,77.0,46.5,29.85,WNW,296,4.0,5.0,34,0.00,,CLR,0.00,998.00,VWS V14.01,2013-05-15 17:40:00,
2013-05-15 12:44:00,77.3,46.0,29.85,WSW,246,5.0,5.0,33,0.00,,CLR,0.00,997.00,VWS V14.01,2013-05-15 17:44:00,
2013-05-15 12:45:00,77.3,46.0,29.85,West,281,16.0,16.0,33,0.00,,CLR,0.00,1002.00,VWS V14.01,2013-05-15 17:45:00,
2013-05-15 12:50:00,77.4,45.3,29.86,NW,315,5.0,7.0,32,0.00,,CLR,0.00,997.00,VWS V14.01,2013-05-15 17:50:00,
2013-05-15 12:55:00,77.8,48.0,29.85,WNW,299,12.0,15.0,35,0.00,,CLR,0.00,1000.00,VWS V14.01,2013-05-15 17:55:00,
2013-05-15 13:00:00,78.0,45.8,29.84,WNW,303,14.0,16.0,32,0.00,,CLR,0.00,179.00,VWS V14.01,2013-05-15 18:00:00,
2013-05-15 13:05:00,77.1,46.6,29.85,NNW,343,6.0,6.0,34,0.00,,SCT080,0.00,487.00,VWS V14.01,2013-05-15 18:05:00,
2013-05-15 13:10:00,77.2,45.1,29.85,NW,314,13.0,13.0,32,0.00,,SCT080,0.00,281.00,VWS V14.01,2013-05-15 18:10:00,
2013-05-15 13:15:00,76.9,45.6,29.84,NW,325,11.0,11.0,33,0.00,,SCT080,0.00,1171.00,VWS V14.01,2013-05-15 18:15:00,
2013-05-15 13:20:00,77.5,44.5,29.84,NW,323,10.0,11.0,31,0.00,,SCT080,0.00,260.00,VWS V14.01,2013-05-15 18:20:00,
2013-05-15 13:25:00,76.6,44.6,29.84,WNW,294,9.0,11.0,32,0.00,,SCT080,0.00,237.00,VWS V14.01,2013-05-15 18:25:00,
2013-05-15 13:30:00,76.7,46.2,29.84,WNW,298,10.0,10.0,34,0.00,,CLR,0.00,237.00,VWS V14.01,2013-05-15 18:30:00,
2013-05-15 13:31:00,76.8,46.3,29.84,NW,319,10.0,11.0,34,0.00,,SCT080,0.00,216.00,VWS V14.01,2013-05-15 18:31:00,
2013-05-15 13:35:00,76.6,43.7,29.84,WNW,303,10.0,10.0,31,0.00,,CLR,0.00,264.00,VWS V14.01,2013-05-15 18:35:00,
2013-05-15 13:36:00,76.7,43.8,29.84,WNW,288,5.0,6.0,31,0.00,,SCT080,0.00,264.00,VWS V14.01,2013-05-15 18:36:00,
2013-05-15 13:40:00,77.0,43.2,29.84,NW,304,6.0,11.0,30,0.00,,CLR,0.00,394.00,VWS V14.01,2013-05-15 18:40:00,
2013-05-15 13:41:00,77.1,44.2,29.84,SW,232,13.0,13.0,31,0.00,,SCT080,0.00,1215.00,VWS V14.01,2013-05-15 18:41:00,
2013-05-15 13:45:00,77.5,43.7,29.84,NW,324,13.0,15.0,30,0.00,,CLR,0.00,202.00,VWS V14.01,2013-05-15 18:45:00,
2013-05-15 13:46:00,77.4,43.6,29.84,WNW,298,12.0,12.0,30,0.00,,SCT080,0.00,199.00,VWS V14.01,2013-05-15 18:46:00,
2013-05-15 13:50:00,76.6,43.7,29.84,NW,313,11.0,16.0,31,0.00,,CLR,0.00,190.00,VWS V14.01,2013-05-15 18:50:00,
2013-05-15 13:51:00,76.6,42.9,29.84,WNW,303,12.0,12.0,30,0.00,,SCT080,0.00,306.00,VWS V14.01,2013-05-15 18:51:00,
2013-05-15 13:55:00,76.6,44.6,29.83,NW,315,7.0,7.0,32,0.00,,CLR,0.00,176.00,VWS V14.01,2013-05-15 18:55:00,
2013-05-15 13:56:00,76.5,43.7,29.83,WNW,287,11.0,13.0,31,0.00,,SCT080,0.00,176.00,VWS V14.01,2013-05-15 18:56:00,
2013-05-15 14:00:00,76.4,44.4,29.84,WNW,300,11.0,11.0,32,0.00,,CLR,0.00,1063.00,VWS V14.01,2013-05-15 19:00:00,
2013-05-15 14:01:00,76.6,45.4,29.84,NNW,334,7.0,8.0,33,0.00,,SCT080,0.00,1083.00,VWS V14.01,2013-05-15 19:01:00,
2013-05-15 14:05:00,77.2,44.2,29.84,NW,306,12.0,12.0,31,0.00,,CLR,0.00,250.00,VWS V14.01,2013-05-15 19:05:00,
2013-05-15 14:06:00,77.2,44.2,29.84,NW,312,4.0,9.0,31,0.00,,SCT090,0.00,257.00,VWS V14.01,2013-05-15 19:06:00,
2013-05-15 14:10:00,77.0,44.1,29.84,NW,321,9.0,9.0,31,0.00,,CLR,0.00,253.00,VWS V14.01,2013-05-15 19:10:00,
2013-05-15 14:11:00,77.0,44.1,29.84,NW,318,10.0,10.0,31,0.00,,SCT090,0.00,253.00,VWS V14.01,2013-05-15 19:11:00,
2013-05-15 14:15:00,76.9,44.0,29.84,WNW,301,5.0,5.0,31,0.00,,CLR,0.00,207.00,VWS V14.01,2013-05-15 19:15:00,
2013-05-15 14:16:00,76.7,43.8,29.84,NNW,328,8.0,8.0,31,0.00,,SCT090,0.00,204.00,VWS V14.01,2013-05-15 19:16:00,
2013-05-15 14:20:00,76.6,45.4,29.83,NNW,331,7.0,12.0,33,0.00,,CLR,0.00,213.00,VWS V14.01,2013-05-15 19:20:00,
2013-05-15 14:21:00,76.8,45.5,29.83,NW,314,8.0,9.0,33,0.00,,SCT090,0.00,1042.00,VWS V14.01,2013-05-15 19:21:00,
2013-05-15 14:25:00,77.3,43.5,29.83,NW,323,6.0,6.0,30,0.00,,CLR,0.00,199.00,VWS V14.01,2013-05-15 19:25:00,
2013-05-15 14:28:00,77.3,42.6,29.83,NW,309,5.0,5.0,29,0.00,,SCT090,0.00,206.00,VWS V14.01,2013-05-15 19:28:00,
2013-05-15 14:30:00,77.1,42.4,29.83,West,263,1.0,2.0,29,0.00,,CLR,0.00,209.00,VWS V14.01,2013-05-15 19:30:00,
2013-05-15 14:33:00,77.1,45.0,29.83,WNW,302,10.0,10.0,32,0.00,,SCT090,0.00,1085.00,VWS V14.01,2013-05-15 19:33:00,
2013-05-15 14:35:00,77.7,45.5,29.83,WNW,303,10.0,14.0,32,0.00,,CLR,0.00,1090.00,VWS V14.01,2013-05-15 19:35:00,
2013-05-15 14:38:00,78.7,42.9,29.83,NW,318,11.0,11.0,28,0.00,,SCT090,0.00,452.00,VWS V14.01,2013-05-15 19:38:00,
2013-05-15 14:40:00,78.8,43.9,29.83,WNW,296,10.0,10.0,29,0.00,,CLR,0.00,360.00,VWS V14.01,2013-05-15 19:40:00,
2013-05-15 14:43:00,78.7,42.9,29.83,WNW,284,9.0,10.0,28,0.00,,SCT090,0.00,360.00,VWS V14.01,2013-05-15 19:43:00,
2013-05-15 14:45:00,78.7,43.8,29.83,NW,325,7.0,13.0,29,0.00,,CLR,0.00,214.00,VWS V14.01,2013-05-15 19:45:00,
2013-05-15 14:48:00,78.4,44.4,29.83,NNW,327,5.0,8.0,30,0.00,,SCT090,0.00,297.00,VWS V14.01,2013-05-15 19:48:00,
2013-05-15 14:50:00,78.5,46.2,29.83,NNW,340,16.0,17.0,32,0.00,,CLR,0.00,1042.00,VWS V14.01,2013-05-15 19:50:00,
2013-05-15 14:53:00,78.8,43.9,29.83,WNW,297,8.0,13.0,29,0.00,,SCT090,0.00,234.00,VWS V14.01,2013-05-15 19:53:00,
2013-05-15 14:55:00,78.7,43.8,29.82,WNW,287,10.0,10.0,29,0.00,,CLR,0.00,221.00,VWS V14.01,2013-05-15 19:55:00,
2013-05-15 14:58:00,78.1,44.2,29.82,NW,323,6.0,7.0,30,0.00,,SCT090,0.00,230.00,VWS V14.01,2013-05-15 19:58:00,
2013-05-15 15:00:00,77.9,44.9,29.83,NW,309,12.0,12.0,31,0.00,,CLR,0.00,200.00,VWS V14.01,2013-05-15 20:00:00,
2013-05-15 15:04:00,77.3,42.6,29.83,NW,325,9.0,9.0,29,0.00,,FEW095,0.00,179.00,VWS V14.01,2013-05-15 20:04:00,
2013-05-15 15:05:00,77.2,43.4,29.83,NNW,327,7.0,7.0,30,0.00,,CLR,0.00,195.00,VWS V14.01,2013-05-15 20:05:00,
2013-05-15 15:09:00,76.8,43.0,29.83,NW,319,6.0,10.0,30,0.00,,FEW095,0.00,190.00,VWS V14.01,2013-05-15 20:09:00,
2013-05-15 15:10:00,76.7,43.8,29.83,NW,326,6.0,6.0,31,0.00,,CLR,0.00,176.00,VWS V14.01,2013-05-15 20:10:00,
2013-05-15 15:14:00,76.6,43.7,29.83,NW,315,5.0,6.0,31,0.00,,FEW095,0.00,171.00,VWS V14.01,2013-05-15 20:14:00,
2013-05-15 15:15:00,76.6,44.6,29.83,NW,306,3.0,7.0,32,0.00,,CLR,0.00,960.00,VWS V14.01,2013-05-15 20:15:00,
2013-05-15 15:19:00,77.2,42.5,29.83,NW,306,9.0,14.0,29,0.00,,FEW095,0.00,200.00,VWS V14.01,2013-05-15 20:19:00,
2013-05-15 15:24:00,77.1,42.4,29.83,NW,311,14.0,14.0,29,0.00,,FEW095,0.00,165.00,VWS V14.01,2013-05-15 20:24:00,
2013-05-15 15:25:00,77.1,42.4,29.83,NW,306,11.0,14.0,29,0.00,,CLR,0.00,165.00,VWS V14.01,2013-05-15 20:25:00,
2013-05-15 15:30:00,76.6,42.9,29.83,NNW,336,10.0,10.0,30,0.00,,FEW095,0.00,183.00,VWS V14.01,2013-05-15 20:30:00,
2013-05-15 15:35:00,76.6,42.0,29.82,NNW,333,11.0,12.0,29,0.00,,FEW095,0.00,216.00,VWS V14.01,2013-05-15 20:35:00,
2013-05-15 15:40:00,77.7,42.9,29.82,NW,304,9.0,14.0,29,0.00,,FEW095,0.00,882.00,VWS V14.01,2013-05-15 20:40:00,
2013-05-15 15:45:00,78.5,41.8,29.82,West,280,6.0,10.0,27,0.00,,FEW095,0.00,211.00,VWS V14.01,2013-05-15 20:45:00,
2013-05-15 15:50:00,78.0,42.3,29.82,WNW,300,3.0,3.0,28,0.00,,FEW095,0.00,244.00,VWS V14.01,2013-05-15 20:50:00,
2013-05-15 15:55:00,78.7,43.8,29.82,West,260,9.0,14.0,29,0.00,,FEW095,0.00,853.00,VWS V14.01,2013-05-15 20:55:00,
2013-05-15 16:00:00,79.8,40.9,29.82,NW,311,9.0,10.0,25,0.00,,FEW095,0.00,826.00,VWS V14.01,2013-05-15 21:00:00,
2013-05-15 16:05:00,80.0,43.0,29.81,NW,323,8.0,9.0,27,0.00,,FEW100,0.00,802.00,VWS V14.01,2013-05-15 21:05:00,
2013-05-15 16:10:00,80.4,41.4,29.81,NW,324,11.0,11.0,25,0.00,,FEW100,0.00,137.00,VWS V14.01,2013-05-15 21:10:00,
2013-05-15 16:15:00,79.1,41.3,29.82,NW,311,6.0,8.0,26,0.00,,FEW100,0.00,195.00,VWS V14.01,2013-05-15 21:15:00,
2013-05-15 16:20:00,78.2,40.5,29.81,WNW,294,9.0,16.0,26,0.00,,FEW100,0.00,179.00,VWS V14.01,2013-05-15 21:20:00,
2013-05-15 16:25:00,78.0,41.3,29.81,WNW,287,4.0,9.0,27,0.00,,FEW100,0.00,193.00,VWS V14.01,2013-05-15 21:25:00,
2013-05-15 16:30:00,78.8,42.0,29.81,WNW,303,14.0,16.0,27,0.00,,FEW100,0.00,710.00,VWS V14.01,2013-05-15 21:30:00,
2013-05-15 16:35:00,80.4,42.4,29.81,NW,315,6.0,9.0,26,0.00,,FEW100,0.00,694.00,VWS V14.01,2013-05-15 21:35:00,
2013-05-15 16:40:00,80.9,41.8,29.81,NW,321,10.0,17.0,25,0.00,,FEW100,0.00,687.00,VWS V14.01,2013-05-15 21:40:00,
2013-05-15 16:45:00,81.0,44.9,29.81,NNW,331,5.0,5.0,28,0.00,,FEW100,0.00,664.00,VWS V14.01,2013-05-15 21:45:00,
2013-05-15 16:50:00,80.7,42.7,29.81,NW,325,9.0,12.0,26,0.00,,FEW100,0.00,512.00,VWS V14.01,2013-05-15 21:50:00,
2013-05-15 16:55:00,80.6,42.6,29.81,NNW,327,13.0,13.0,26,0.00,,CLR,0.00,626.00,VWS V14.01,2013-05-15 21:55:00,
2013-05-15 16:56:00,80.7,42.7,29.81,NW,314,12.0,12.0,26,0.00,,FEW100,0.00,654.00,VWS V14.01,2013-05-15 21:56:00,
2013-05-15 17:00:00,80.9,43.8,29.81,West,259,3.0,6.0,27,0.00,,CLR,0.00,619.00,VWS V14.01,2013-05-15 22:00:00,
2013-05-15 17:02:00,81.1,43.0,29.81,NW,311,9.0,10.0,26,0.00,,SCT100,0.00,631.00,VWS V14.01,2013-05-15 22:02:00,
2013-05-15 17:05:00,81.4,43.3,29.81,WNW,299,9.0,15.0,26,0.00,,CLR,0.00,584.00,VWS V14.01,2013-05-15 22:05:00,
2013-05-15 17:07:00,81.4,42.2,29.81,NW,309,9.0,14.0,25,0.00,,SCT100,0.00,621.00,VWS V14.01,2013-05-15 22:07:00,
2013-05-15 17:10:00,81.2,43.1,29.81,WNW,287,8.0,10.0,26,0.00,,CLR,0.00,584.00,VWS V14.01,2013-05-15 22:10:00,
2013-05-15 17:12:00,81.2,43.1,29.81,WNW,303,10.0,14.0,26,0.00,,SCT100,0.00,591.00,VWS V14.01,2013-05-15 22:12:00,
2013-05-15 17:15:00,81.0,41.9,29.81,WNW,288,14.0,14.0,25,0.00,,CLR,0.00,577.00,VWS V14.01,2013-05-15 22:15:00,
2013-05-15 17:17:00,80.9,41.8,29.81,WNW,286,2.0,4.0,25,0.00,,SCT100,0.00,552.00,VWS V14.01,2013-05-15 22:17:00,
2013-05-15 17:20:00,80.9,41.8,29.81,NW,326,16.0,16.0,25,0.00,,CLR,0.00,538.00,VWS V14.01,2013-05-15 22:20:00,
2013-05-15 17:22:00,80.8,41.7,29.81,NW,304,10.0,13.0,25,0.00,,SCT100,0.00,538.00,VWS V14.01,2013-05-15 22:22:00,
2013-05-15 17:25:00,80.7,41.7,29.81,NNW,342,5.0,9.0,25,0.00,,CLR,0.00,508.00,VWS V14.01,2013-05-15 22:25:00,
2013-05-15 17:27:00,80.7,42.7,29.81,NW,323,6.0,10.0,26,0.00,,SCT100,0.00,422.00,VWS V14.01,2013-05-15 22:27:00,
2013-05-15 17:30:00,80.8,41.7,29.81,NW,309,9.0,13.0,25,0.00,,CLR,0.00,513.00,VWS V14.01,2013-05-15 22:30:00,
2013-05-15 17:32:00,80.7,40.6,29.81,West,263,15.0,17.0,24,0.00,,SCT100,0.00,527.00,VWS V14.01,2013-05-15 22:32:00,
2013-05-15 17:35:00,80.5,42.5,29.81,West,272,7.0,7.0,26,0.00,,CLR,0.00,501.00,VWS V14.01,2013-05-15 22:35:00,
2013-05-15 17:38:00,80.6,41.6,29.81,WNW,288,3.0,5.0,25,0.00,,SCT100,0.00,501.00,VWS V14.01,2013-05-15 22:38:00,
2013-05-15 17:40:00,80.7,42.7,29.81,NW,317,11.0,11.0,26,0.00,,CLR,0.00,508.00,VWS V14.01,2013-05-15 22:40:00,
2013-05-15 17:43:00,80.9,43.8,29.81,NNW,346,5.0,7.0,27,0.00,,SCT100,0.00,459.00,VWS V14.01,2013-05-15 22:43:00,
2013-05-15 17:45:00,80.8,42.8,29.81,NW,312,9.0,9.0,26,0.00,,CLR,0.00,357.00,VWS V14.01,2013-05-15 22:45:00,
2013-05-15 17:49:00,80.5,42.5,29.81,NW,324,7.0,7.0,26,0.00,,SCT100,0.00,478.00,VWS V14.01,2013-05-15 22:49:00,
2013-05-15 17:50:00,80.4,43.4,29.81,WNW,298,7.0,7.0,27,0.00,,CLR,0.00,459.00,VWS V14.01,2013-05-15 22:50:00,
2013-05-15 17:54:00,80.2,42.2,29.81,NW,312,12.0,12.0,26,0.00,,SCT100,0.00,355.00,VWS V14.01,2013-05-15 22:54:00,
2013-05-15 17:55:00,80.2,42.2,29.81,WNW,290,8.0,10.0,26,0.00,,CLR,0.00,497.00,VWS V14.01,2013-05-15 22:55:00,
2013-05-15 17:59:00,80.0,42.1,29.81,WNW,296,5.0,10.0,26,0.00,,SCT100,0.00,204.00,VWS V14.01,2013-05-15 22:59:00,
2013-05-15 18:00:00,79.9,42.0,29.81,WNW,290,5.0,7.0,26,0.00,,CLR,0.00,204.00,VWS V14.01,2013-05-15 23:00:00,
2013-05-15 18:04:00,80.0,42.1,29.80,NW,307,9.0,9.0,26,0.00,,CLR,0.00,482.00,VWS V14.01,2013-05-15 23:04:00,
2013-05-15 18:05:00,80.1,42.2,29.80,NW,318,9.0,9.0,26,0.00,,CLR,0.00,482.00,VWS V14.01,2013-05-15 23:05:00,
2013-05-15 18:09:00,80.6,42.6,29.80,NW,316,5.0,12.0,26,0.00,,CLR,0.00,480.00,VWS V14.01,2013-05-15 23:09:00,
2013-05-15 18:10:00,80.6,42.6,29.80,NW,311,7.0,7.0,26,0.00,,CLR,0.00,420.00,VWS V14.01,2013-05-15 23:10:00,
2013-05-15 18:15:00,80.9,42.8,29.80,WNW,302,2.0,6.0,26,0.00,,CLR,0.00,469.00,VWS V14.01,2013-05-15 23:15:00,
2013-05-15 18:20:00,80.9,42.8,29.80,West,267,8.0,14.0,26,0.00,,CLR,0.00,415.00,VWS V14.01,2013-05-15 23:20:00,
2013-05-15 18:25:00,80.6,42.6,29.80,NW,319,9.0,13.0,26,0.00,,CLR,0.00,429.00,VWS V14.01,2013-05-15 23:25:00,
2013-05-15 18:30:00,80.6,43.6,29.79,West,268,2.0,4.0,27,0.00,,CLR,0.00,330.00,VWS V14.01,2013-05-15 23:30:00,
2013-05-15 18:35:00,80.5,43.5,29.79,NW,310,9.0,11.0,27,0.00,,CLR,0.00,323.00,VWS V14.01,2013-05-15 23:35:00,
2013-05-15 18:40:00,80.3,44.3,29.79,WNW,291,6.0,8.0,28,0.00,,CLR,0.00,272.00,VWS V14.01,2013-05-15 23:40:00,
2013-05-15 18:45:00,80.1,42.2,29.80,NW,310,3.0,12.0,26,0.00,,CLR,0.00,271.00,VWS V14.01,2013-05-15 23:45:00,
2013-05-15 18:50:00,80.0,43.0,29.79,NNW,330,7.0,9.0,27,0.00,,CLR,0.00,200.00,VWS V14.01,2013-05-15 23:50:00,
2013-05-15 18:55:00,79.8,42.9,29.80,NW,315,5.0,6.0,27,0.00,,CLR,0.00,264.00,VWS V14.01,2013-05-15 23:55:00,
2013-05-15 18:56:00,79.8,43.8,29.80,NW,317,5.0,6.0,28,0.00,,CLR,0.00,250.00,VWS V14.01,2013-05-15 23:56:00,
2013-05-15 19:00:00,79.6,41.7,29.79,NW,319,2.0,3.0,26,0.00,,CLR,0.00,230.00,VWS V14.01,2013-05-16 00:00:00,
2013-05-15 19:01:00,79.6,42.7,29.79,SW,221,4.0,5.0,27,0.00,,CLR,0.00,230.00,VWS V14.01,2013-05-16 00:01:00,
2013-05-15 19:05:00,79.6,42.7,29.79,WNW,295,8.0,8.0,27,0.00,,CLR,0.00,229.00,VWS V14.01,2013-05-16 00:05:00,
2013-05-15 19:06:00,79.5,42.6,29.79,WNW,290,1.0,5.0,27,0.00,,CLR,0.00,216.00,VWS V14.01,2013-05-16 00:06:00,
2013-05-15 19:10:00,79.1,43.2,29.79,NW,314,3.0,6.0,28,0.00,,CLR,0.00,107.00,VWS V14.01,2013-05-16 00:10:00,
2013-05-15 19:11:00,79.0,43.2,29.79,WNW,296,5.0,9.0,28,0.00,,CLR,0.00,209.00,VWS V14.01,2013-05-16 00:11:00,
2013-05-15 19:15:00,78.7,42.9,29.79,NW,316,7.0,7.0,28,0.00,,CLR,0.00,199.00,VWS V14.01,2013-05-16 00:15:00,
2013-05-15 19:16:00,78.7,42.9,29.79,WNW,300,9.0,11.0,28,0.00,,CLR,0.00,195.00,VWS V14.01,2013-05-16 00:16:00,
2013-05-15 19:20:00,78.5,42.7,29.79,West,273,3.0,5.0,28,0.00,,CLR,0.00,178.00,VWS V14.01,2013-05-16 00:20:00,
2013-05-15 19:21:00,78.4,42.6,29.79,NW,317,5.0,10.0,28,0.00,,CLR,0.00,162.00,VWS V14.01,2013-05-16 00:21:00,
2013-05-15 19:25:00,78.3,42.5,29.79,WNW,284,2.0,3.0,28,0.00,,CLR,0.00,132.00,VWS V14.01,2013-05-16 00:25:00,
2013-05-15 19:27:00,78.2,42.5,29.79,NW,321,6.0,6.0,28,0.00,,CLR,0.00,109.00,VWS V14.01,2013-05-16 00:27:00,
2013-05-15 19:30:00,78.1,42.4,29.79,WNW,290,1.0,1.0,28,0.00,,CLR,0.00,83.00,VWS V14.01,2013-05-16 00:30:00,
2013-05-15 19:32:00,78.0,43.2,29.79,NW,315,0.0,0.0,29,0.00,,CLR,0.00,88.00,VWS V14.01,2013-05-16 00:32:00,
2013-05-15 19:35:00,77.9,43.1,29.79,NW,316,4.0,4.0,29,0.00,,CLR,0.00,79.00,VWS V14.01,2013-05-16 00:35:00,
2013-05-15 19:37:00,77.8,43.9,29.79,WNW,294,2.0,3.0,30,0.00,,CLR,0.00,67.00,VWS V14.01,2013-05-16 00:37:00,
2013-05-15 19:40:00,77.6,42.9,29.79,NW,324,3.0,4.0,29,0.00,,CLR,0.00,53.00,VWS V14.01,2013-05-16 00:40:00,
2013-05-15 19:42:00,77.4,42.7,29.79,West,272,4.0,4.0,29,0.00,,CLR,0.00,51.00,VWS V14.01,2013-05-16 00:42:00,
2013-05-15 19:45:00,77.2,43.4,29.79,NW,309,6.0,7.0,30,0.00,,CLR,0.00,46.00,VWS V14.01,2013-05-16 00:45:00,
2013-05-15 19:48:00,76.9,43.1,29.79,WNW,294,2.0,2.0,30,0.00,,CLR,0.00,40.00,VWS V14.01,2013-05-16 00:48:00,
2013-05-15 19:50:00,76.8,43.0,29.79,NW,325,4.0,5.0,30,0.00,,CLR,0.00,39.00,VWS V14.01,2013-05-16 00:50:00,
2013-05-15 19:53:00,76.5,42.8,29.79,WNW,290,2.0,3.0,30,0.00,,CLR,0.00,30.00,VWS V14.01,2013-05-16 00:53:00,
2013-05-15 19:55:00,76.4,42.7,29.79,NW,309,5.0,9.0,30,0.00,,CLR,0.00,28.00,VWS V14.01,2013-05-16 00:55:00,
2013-05-15 19:58:00,76.1,42.5,29.80,NW,318,3.0,4.0,30,0.00,,CLR,0.00,26.00,VWS V14.01,2013-05-16 00:58:00,
2013-05-15 20:00:00,75.9,43.1,29.79,NW,317,3.0,4.0,31,0.00,,CLR,0.00,25.00,VWS V14.01,2013-05-16 01:00:00,
2013-05-15 20:03:00,75.4,42.7,29.79,NW,306,0.0,2.0,31,0.00,,CLR,0.00,21.00,VWS V14.01,2013-05-16 01:03:00,
2013-05-15 20:05:00,75.3,42.6,29.79,NW,305,2.0,3.0,31,0.00,,CLR,0.00,21.00,VWS V14.01,2013-05-16 01:05:00,
2013-05-15 20:08:00,74.8,43.0,29.79,NW,305,0.0,1.0,32,0.00,,CLR,0.00,16.00,VWS V14.01,2013-05-16 01:08:00,
2013-05-15 20:10:00,74.6,42.0,29.79,NW,304,0.0,2.0,31,0.00,,CLR,0.00,14.00,VWS V14.01,2013-05-16 01:10:00,
2013-05-15 20:13:00,74.1,42.4,29.79,WNW,302,0.0,0.0,32,0.00,,CLR,0.00,12.00,VWS V14.01,2013-05-16 01:13:00,
2013-05-15 20:15:00,74.0,43.1,29.79,WNW,302,1.0,1.0,33,0.00,,CLR,0.00,12.00,VWS V14.01,2013-05-16 01:15:00,
2013-05-15 20:18:00,73.5,41.9,29.79,WNW,302,0.0,0.0,32,0.00,,CLR,0.00,14.00,VWS V14.01,2013-05-16 01:18:00,
2013-05-15 20:20:00,73.4,42.6,29.79,WNW,302,0.0,0.0,33,0.00,,CLR,0.00,12.00,VWS V14.01,2013-05-16 01:20:00,
2013-05-15 20:24:00,72.9,43.7,29.79,WNW,302,0.0,0.0,35,0.00,,CLR,0.00,11.00,VWS V14.01,2013-05-16 01:24:00,
2013-05-15 20:25:00,72.6,41.9,29.79,WNW,302,0.0,1.0,33,0.00,,CLR,0.00,11.00,VWS V14.01,2013-05-16 01:25:00,
2013-05-15 20:29:00,71.8,42.7,29.79,WNW,302,0.0,0.0,35,0.00,,CLR,0.00,9.00,VWS V14.01,2013-05-16 01:29:00,
2013-05-15 20:30:00,71.6,42.5,29.79,WNW,302,0.0,0.0,35,0.00,,CLR,0.00,7.00,VWS V14.01,2013-05-16 01:30:00,
2013-05-15 20:34:00,70.9,42.6,29.79,WNW,302,0.0,0.0,36,0.00,,CLR,0.00,7.00,VWS V14.01,2013-05-16 01:34:00,
2013-05-15 20:35:00,70.7,42.5,29.79,WNW,302,0.0,1.0,36,0.00,,CLR,0.00,5.00,VWS V14.01,2013-05-16 01:35:00,
2013-05-15 20:39:00,70.1,43.3,29.79,WNW,302,0.0,0.0,38,0.00,,CLR,0.00,5.00,VWS V14.01,2013-05-16 01:39:00,
2013-05-15 20:40:00,70.1,43.3,29.79,WNW,302,0.0,0.0,38,0.00,,CLR,0.00,0.00,VWS V14.01,2013-05-16 01:40:00,
2013-05-15 20:45:00,69.4,42.0,29.79,WNW,302,0.0,0.0,37,0.00,,CLR,0.00,0.00,VWS V14.01,2013-05-16 01:45:00,
2013-05-15 20:50:00,68.8,42.2,29.79,WNW,302,0.0,0.0,38,0.00,,CLR,0.00,0.00,VWS V14.01,2013-05-16 01:50:00,
2013-05-15 20:55:00,68.5,43.2,29.80,WNW,302,0.0,0.0,40,0.00,,CLR,0.00,0.00,VWS V14.01,2013-05-16 01:55:00,
2013-05-15 21:00:00,68.2,41.7,29.79,WNW,302,0.0,0.0,38,0.00,,CLR,0.00,0.00,VWS V14.01,2013-05-16 02:00:00,
2013-05-15 21:05:00,67.9,42.1,29.80,WNW,302,0.0,0.0,39,0.00,,CLR,0.00,0.00,VWS V14.01,2013-05-16 02:05:00,
2013-05-15 21:10:00,67.6,42.4,29.80,WNW,302,0.0,0.0,40,0.00,,CLR,0.00,0.00,VWS V14.01,2013-05-16 02:10:00,
2013-05-15 21:15:00,67.4,43.5,29.80,WNW,302,0.0,0.0,42,0.00,,CLR,0.00,0.00,VWS V14.01,2013-05-16 02:15:00,
2013-05-15 21:20:00,67.4,45.3,29.80,WNW,302,0.0,0.0,45,0.00,,CLR,0.00,0.00,VWS V14.01,2013-05-16 02:20:00,
2013-05-15 21:25:00,67.1,45.7,29.80,WNW,302,0.0,0.0,46,0.00,,CLR,0.00,0.00,VWS V14.01,2013-05-16 02:25:00,
2013-05-15 21:30:00,66.4,45.6,29.80,WNW,295,1.0,1.0,47,0.00,,CLR,0.00,0.00,VWS V14.01,2013-05-16 02:30:00,
2013-05-15 21:35:00,66.2,44.8,29.80,WNW,295,0.0,0.0,46,0.00,,CLR,0.00,0.00,VWS V14.01,2013-05-16 02:35:00,
2013-05-15 21:40:00,66.2,45.4,29.80,WNW,295,0.0,0.0,47,0.00,,CLR,0.00,0.00,VWS V14.01,2013-05-16 02:40:00,
2013-05-15 21:45:00,65.7,44.4,29.80,WNW,295,0.0,0.0,46,0.00,,CLR,0.00,0.00,VWS V14.01,2013-05-16 02:45:00,
2013-05-15 21:50:00,65.5,43.6,29.81,South,188,0.0,0.0,45,0.00,,CLR,0.00,0.00,VWS V14.01,2013-05-16 02:50:00,
2013-05-15 21:55:00,65.7,43.8,29.81,SSW,198,0.0,0.0,45,0.00,,CLR,0.00,0.00,VWS V14.01,2013-05-16 02:55:00,
2013-05-15 22:00:00,65.5,44.8,29.81,SW,221,0.0,0.0,47,0.00,,CLR,0.00,0.00,VWS V14.01,2013-05-16 03:00:00,
2013-05-15 22:01:00,65.5,44.2,29.80,SW,221,0.0,0.0,46,0.00,,FEW110,0.00,0.00,VWS V14.01,2013-05-16 03:01:00,
2013-05-15 22:05:00,65.7,43.8,29.80,South,188,4.0,5.0,45,0.00,,CLR,0.00,0.00,VWS V14.01,2013-05-16 03:05:00,
2013-05-15 22:06:00,65.8,43.9,29.80,SSW,202,1.0,1.0,45,0.00,,FEW110,0.00,0.00,VWS V14.01,2013-05-16 03:06:00,
2013-05-15 22:10:00,66.5,44.5,29.80,South,188,0.0,0.0,45,0.00,,CLR,0.00,0.00,VWS V14.01,2013-05-16 03:10:00,
2013-05-15 22:11:00,66.5,44.5,29.80,South,188,0.0,0.0,45,0.00,,FEW110,0.00,0.00,VWS V14.01,2013-05-16 03:11:00,
2013-05-15 22:15:00,66.4,43.8,29.80,South,189,1.0,1.0,44,0.00,,CLR,0.00,0.00,VWS V14.01,2013-05-16 03:15:00,
2013-05-15 22:16:00,66.4,43.8,29.80,South,190,1.0,1.0,44,0.00,,FEW110,0.00,0.00,VWS V14.01,2013-05-16 03:16:00,
2013-05-15 22:20:00,66.6,44.0,29.80,South,188,0.0,0.0,44,0.00,,CLR,0.00,0.00,VWS V14.01,2013-05-16 03:20:00,
2013-05-15 22:21:00,66.5,44.5,29.80,South,190,0.0,1.0,45,0.00,,FEW110,0.00,0.00,VWS V14.01,2013-05-16 03:21:00,
2013-05-15 22:25:00,65.9,44.0,29.80,South,190,0.0,0.0,45,0.00,,CLR,0.00,0.00,VWS V14.01,2013-05-16 03:25:00,
2013-05-15 22:26:00,65.8,45.0,29.80,South,190,0.0,0.0,47,0.00,,FEW110,0.00,0.00,VWS V14.01,2013-05-16 03:26:00,
2013-05-15 22:30:00,65.7,44.9,29.80,South,189,0.0,0.0,47,0.00,,CLR,0.00,0.00,VWS V14.01,2013-05-16 03:30:00,
2013-05-15 22:31:00,65.5,44.2,29.80,South,188,0.0,1.0,46,0.00,,FEW110,0.00,0.00,VWS V14.01,2013-05-16 03:31:00,
2013-05-15 22:35:00,65.3,44.6,29.80,South,188,0.0,2.0,47,0.00,,CLR,0.00,0.00,VWS V14.01,2013-05-16 03:35:00,
2013-05-15 22:36:00,65.2,44.5,29.80,South,189,0.0,0.0,47,0.00,,FEW110,0.00,0.00,VWS V14.01,2013-05-16 03:36:00,
2013-05-15 22:40:00,65.2,44.5,29.80,SW,219,0.0,1.0,47,0.00,,CLR,0.00,0.00,VWS V14.01,2013-05-16 03:40:00,
2013-05-15 22:41:00,65.3,44.6,29.80,South,186,2.0,3.0,47,0.00,,FEW110,0.00,0.00,VWS V14.01,2013-05-16 03:41:00,
2013-05-15 22:45:00,65.7,44.4,29.80,SSW,212,1.0,2.0,46,0.00,,CLR,0.00,0.00,VWS V14.01,2013-05-16 03:45:00,
2013-05-15 22:46:00,66.0,44.7,29.80,SSW,209,0.0,1.0,46,0.00,,FEW110,0.00,0.00,VWS V14.01,2013-05-16 03:46:00,
2013-05-15 22:50:00,66.2,44.8,29.80,SSW,196,1.0,1.0,46,0.00,,CLR,0.00,0.00,VWS V14.01,2013-05-16 03:50:00,
2013-05-15 22:52:00,66.4,45.0,29.80,SSW,197,0.0,2.0,46,0.00,,FEW110,0.00,0.00,VWS V14.01,2013-05-16 03:52:00,
2013-05-15 22:55:00,66.5,45.1,29.80,SW,221,3.0,3.0,46,0.00,,CLR,0.00,0.00,VWS V14.01,2013-05-16 03:55:00,
2013-05-15 22:57:00,66.4,45.0,29.80,SW,219,1.0,1.0,46,0.00,,FEW110,0.00,0.00,VWS V14.01,2013-05-16 03:57:00,
2013-05-15 23:00:00,66.3,44.9,29.80,SSW,200,1.0,1.0,46,0.00,,CLR,0.00,0.00,VWS V14.01,2013-05-16 04:00:00,
2013-05-15 23:01:00,66.2,45.4,29.80,South,169,2.0,3.0,47,0.00,,CLR,0.00,0.00,VWS V14.01,2013-05-16 04:01:00,
2013-05-15 23:02:00,66.2,45.4,29.79,SSW,206,1.0,2.0,47,0.00,,CLR,0.00,0.00,VWS V14.01,2013-05-16 04:02:00,
2013-05-15 23:05:00,66.2,45.4,29.79,SSW,198,1.0,2.0,47,0.00,,CLR,0.00,0.00,VWS V14.01,2013-05-16 04:05:00,
2013-05-15 23:07:00,66.1,45.3,29.80,South,181,1.0,2.0,47,0.00,,CLR,0.00,0.00,VWS V14.01,2013-05-16 04:07:00,
2013-05-15 23:10:00,66.0,45.8,29.80,SSW,210,2.0,4.0,48,0.00,,CLR,0.00,0.00,VWS V14.01,2013-05-16 04:10:00,
2013-05-15 23:12:00,66.0,45.8,29.80,South,169,2.0,2.0,48,0.00,,CLR,0.00,0.00,VWS V14.01,2013-05-16 04:12:00,
2013-05-15 23:15:00,66.0,45.8,29.80,SSE,161,0.0,1.0,48,0.00,,CLR,0.00,0.00,VWS V14.01,2013-05-16 04:15:00,
2013-05-15 23:17:00,66.0,45.8,29.80,SW,217,3.0,4.0,48,0.00,,CLR,0.00,0.00,VWS V14.01,2013-05-16 04:17:00,
2013-05-15 23:20:00,66.0,45.8,29.80,SSW,203,0.0,1.0,48,0.00,,CLR,0.00,0.00,VWS V14.01,2013-05-16 04:20:00,
2013-05-15 23:22:00,66.0,45.8,29.80,SSW,207,1.0,1.0,48,0.00,,CLR,0.00,0.00,VWS V14.01,2013-05-16 04:22:00,
2013-05-15 23:25:00,65.9,45.7,29.80,WSW,250,0.0,2.0,48,0.00,,CLR,0.00,0.00,VWS V14.01,2013-05-16 04:25:00,
2013-05-15 23:27:00,65.8,45.6,29.80,South,173,1.0,2.0,48,0.00,,CLR,0.00,0.00,VWS V14.01,2013-05-16 04:27:00,
2013-05-15 23:30:00,65.8,46.1,29.80,South,180,1.0,1.0,49,0.00,,CLR,0.00,0.00,VWS V14.01,2013-05-16 04:30:00,
2013-05-15 23:32:00,65.7,45.5,29.80,South,184,1.0,1.0,48,0.00,,CLR,0.00,0.00,VWS V14.01,2013-05-16 04:32:00,
2013-05-15 23:35:00,65.7,46.0,29.80,SSW,213,0.0,3.0,49,0.00,,CLR,0.00,0.00,VWS V14.01,2013-05-16 04:35:00,
2013-05-15 23:38:00,65.7,45.5,29.80,SSW,196,1.0,1.0,48,0.00,,CLR,0.00,0.00,VWS V14.01,2013-05-16 04:38:00,
2013-05-15 23:40:00,65.7,46.0,29.80,WSW,241,0.0,0.0,49,0.00,,CLR,0.00,0.00,VWS V14.01,2013-05-16 04:40:00,
2013-05-15 23:43:00,65.7,46.0,29.80,SW,234,0.0,2.0,49,0.00,,CLR,0.00,0.00,VWS V14.01,2013-05-16 04:43:00,
2013-05-15 23:45:00,65.8,46.1,29.80,SW,222,3.0,3.0,49,0.00,,CLR,0.00,0.00,VWS V14.01,2013-05-16 04:45:00,
2013-05-15 23:48:00,65.8,46.1,29.80,SW,218,0.0,1.0,49,0.00,,CLR,0.00,0.00,VWS V14.01,2013-05-16 04:48:00,
2013-05-15 23:50:00,65.8,46.1,29.80,SSE,152,1.0,2.0,49,0.00,,CLR,0.00,0.00,VWS V14.01,2013-05-16 04:50:00,
2013-05-15 23:53:00,65.6,46.0,29.80,SW,224,0.0,3.0,49,0.00,,CLR,0.00,0.00,VWS V14.01,2013-05-16 04:53:00,
2013-05-15 23:55:00,65.6,46.0,29.80,WNW,289,3.0,3.0,49,0.00,,CLR,0.00,0.00,VWS V14.01,2013-05-16 04:55:00,
2013-05-15 23:58:00,65.5,45.8,29.81,WNW,283,1.0,3.0,49,0.00,,CLR,0.00,0.00,VWS V14.01,2013-05-16 04:58:00,